INTELSAT 11 (IS-11)

Last updated on Sun Apr 12 2026 00:02:51 GMT+0000 (Coordinated Universal Time)

1 32253U 07044B 26101.53230411 .00000090 00000+0 00000+0 0 9996 2 32253 3.3910 79.4575 0002250 223.2376 147.5459 0.99047808 67793
UTC large
Height (km)
Speed (km/s)
/
Latitude / Longitude
Inclination (degrees)
Orbital Period (minutes)
Azimuth
Elevation
Range (km)
Doppler Factor

Next 0 passes for location: London (51.5072 / 0.1276)

Sorry there are no passes over London.